Time,TemperatureF,DewpointF,PressureIn,WindDirection,WindDirectionDegrees,WindSpeedMPH,WindSpeedGustMPH,Humidity,HourlyPrecipIn,Conditions,Clouds,dailyrainin,SoftwareType,DateUTC
2013-09-21 00:02:00,62.4,62.0,29.96,NNW,338,0.0,-999.0,99,-99.99,,,0.00,weatherlink.com 1.10,2013-09-21 04:02:00,
2013-09-21 00:17:00,62.4,62.0,29.96,NNW,338,0.0,-999.0,99,-99.99,,,0.00,weatherlink.com 1.10,2013-09-21 04:17:00,
2013-09-21 00:33:00,62.3,62.0,29.96,NNW,338,0.0,-999.0,99,-99.99,,,0.00,weatherlink.com 1.10,2013-09-21 04:33:00,
2013-09-21 00:47:00,62.3,62.0,29.95,NNW,338,0.0,-999.0,99,-99.99,,,0.00,weatherlink.com 1.10,2013-09-21 04:47:00,
2013-09-21 01:02:00,62.3,62.0,29.95,NNW,338,0.0,-999.0,99,-99.99,,,0.00,weatherlink.com 1.10,2013-09-21 05:02:00,
2013-09-21 01:17:00,62.1,62.0,29.95,NNW,338,0.0,-999.0,99,-99.99,,,0.00,weatherlink.com 1.10,2013-09-21 05:17:00,
2013-09-21 01:33:00,62.1,62.0,29.94,NNW,338,0.0,-999.0,99,-99.99,,,0.00,weatherlink.com 1.10,2013-09-21 05:33:00,
2013-09-21 01:48:00,62.1,62.0,29.93,NNW,338,0.0,-999.0,99,-99.99,,,0.00,weatherlink.com 1.10,2013-09-21 05:48:00,
2013-09-21 02:03:00,62.1,62.0,29.93,NNW,338,0.0,-999.0,99,-99.99,,,0.00,weatherlink.com 1.10,2013-09-21 06:03:00,
2013-09-21 02:18:00,62.0,62.0,29.93,NNW,338,0.0,-999.0,99,-99.99,,,0.00,weatherlink.com 1.10,2013-09-21 06:18:00,
2013-09-21 02:33:00,62.0,62.0,29.93,NNW,338,0.0,-999.0,100,-99.99,,,0.00,weatherlink.com 1.10,2013-09-21 06:33:00,
2013-09-21 02:48:00,62.0,62.0,29.92,NNW,340,0.0,-999.0,100,-99.99,,,0.00,weatherlink.com 1.10,2013-09-21 06:48:00,
2013-09-21 03:03:00,62.0,62.0,29.92,NNW,340,0.0,-999.0,100,-99.99,,,0.00,weatherlink.com 1.10,2013-09-21 07:03:00,
2013-09-21 03:18:00,61.8,62.0,29.91,NW,305,0.0,-999.0,100,-99.99,,,0.00,weatherlink.com 1.10,2013-09-21 07:18:00,
2013-09-21 03:33:00,61.6,62.0,29.90,SE,134,1.0,-999.0,100,-99.99,,,0.00,weatherlink.com 1.10,2013-09-21 07:33:00,
2013-09-21 03:48:00,61.5,62.0,29.89,NW,326,0.0,-999.0,100,-99.99,,,0.00,weatherlink.com 1.10,2013-09-21 07:48:00,
2013-09-21 04:03:00,61.5,62.0,29.89,NNW,328,0.0,-999.0,100,-99.99,,,0.00,weatherlink.com 1.10,2013-09-21 08:03:00,
2013-09-21 04:18:00,61.3,61.0,29.88,NNW,328,0.0,-999.0,100,-99.99,,,0.00,weatherlink.com 1.10,2013-09-21 08:18:00,
2013-09-21 04:33:00,61.5,62.0,29.89,NNW,328,0.0,-999.0,100,-99.99,,,0.00,weatherlink.com 1.10,2013-09-21 08:33:00,
2013-09-21 04:48:00,61.3,61.0,29.88,NNW,328,0.0,-999.0,100,-99.99,,,0.00,weatherlink.com 1.10,2013-09-21 08:48:00,
2013-09-21 05:03:00,61.3,61.0,29.88,NNE,13,0.0,-999.0,100,-99.99,,,0.00,weatherlink.com 1.10,2013-09-21 09:03:00,
2013-09-21 05:18:00,61.2,61.0,29.87,NNE,13,0.0,-999.0,100,-99.99,,,0.00,weatherlink.com 1.10,2013-09-21 09:18:00,
2013-09-21 05:33:00,61.2,61.0,29.87,NNE,12,0.0,-999.0,100,-99.99,,,0.00,weatherlink.com 1.10,2013-09-21 09:33:00,
2013-09-21 05:48:00,61.2,61.0,29.87,NNE,12,0.0,-999.0,100,-99.99,,,0.00,weatherlink.com 1.10,2013-09-21 09:48:00,
2013-09-21 06:03:00,61.2,61.0,29.86,NNE,12,0.0,-999.0,100,-99.99,,,0.00,weatherlink.com 1.10,2013-09-21 10:03:00,
2013-09-21 06:18:00,61.0,61.0,29.86,NNE,12,0.0,-999.0,100,-99.99,,,0.00,weatherlink.com 1.10,2013-09-21 10:18:00,
2013-09-21 06:33:00,61.0,61.0,29.86,NNW,327,0.0,-999.0,100,-99.99,,,0.00,weatherlink.com 1.10,2013-09-21 10:33:00,
2013-09-21 06:48:00,60.9,61.0,29.87,NNW,327,0.0,-999.0,100,-99.99,,,0.00,weatherlink.com 1.10,2013-09-21 10:48:00,
2013-09-21 07:03:00,60.9,61.0,29.86,NNW,327,0.0,-999.0,100,-99.99,,,0.00,weatherlink.com 1.10,2013-09-21 11:03:00,
2013-09-21 07:18:00,60.9,61.0,29.86,West,262,0.0,-999.0,100,-99.99,,,0.00,weatherlink.com 1.10,2013-09-21 11:18:00,
2013-09-21 07:33:00,60.9,61.0,29.86,East,99,0.0,-999.0,100,-99.99,,,0.00,weatherlink.com 1.10,2013-09-21 11:33:00,
2013-09-21 07:48:00,60.9,61.0,29.86,NE,46,0.0,-999.0,100,-99.99,,,0.00,weatherlink.com 1.10,2013-09-21 11:48:00,
2013-09-21 08:03:00,61.0,61.0,29.87,NE,46,0.0,-999.0,100,-99.99,,,0.00,weatherlink.com 1.10,2013-09-21 12:03:00,
2013-09-21 08:18:00,61.0,61.0,29.86,NW,322,0.0,-999.0,100,-99.99,,,0.00,weatherlink.com 1.10,2013-09-21 12:18:00,
2013-09-21 08:33:00,61.0,61.0,29.86,ENE,62,0.0,-999.0,100,-99.99,,,0.00,weatherlink.com 1.10,2013-09-21 12:33:00,
2013-09-21 08:48:00,61.0,61.0,29.86,SE,130,1.0,-999.0,100,-99.99,,,0.00,weatherlink.com 1.10,2013-09-21 12:48:00,
2013-09-21 09:03:00,61.0,61.0,29.86,NNE,19,0.0,-999.0,100,-99.99,,,0.00,weatherlink.com 1.10,2013-09-21 13:03:00,
2013-09-21 09:18:00,61.2,61.0,29.86,North,355,0.0,-999.0,100,-99.99,,,0.00,weatherlink.com 1.10,2013-09-21 13:18:00,
2013-09-21 09:33:00,61.3,61.0,29.86,East,92,0.0,-999.0,100,-99.99,,,0.00,weatherlink.com 1.10,2013-09-21 13:33:00,
2013-09-21 09:48:00,61.3,61.0,29.86,North,355,0.0,-999.0,100,-99.99,,,0.00,weatherlink.com 1.10,2013-09-21 13:48:00,
2013-09-21 10:03:00,61.2,61.0,29.85,NNW,331,0.0,-999.0,100,-99.99,,,0.00,weatherlink.com 1.10,2013-09-21 14:03:00,
2013-09-21 10:18:00,61.3,61.0,29.85,NNE,24,0.0,-999.0,100,-99.99,,,0.00,weatherlink.com 1.10,2013-09-21 14:18:00,
2013-09-21 10:33:00,61.3,61.0,29.84,NNW,330,2.0,-999.0,100,-99.99,,,0.00,weatherlink.com 1.10,2013-09-21 14:33:00,
2013-09-21 10:48:00,61.3,61.0,29.84,SE,142,1.0,-999.0,100,-99.99,,,0.00,weatherlink.com 1.10,2013-09-21 14:48:00,
2013-09-21 11:03:00,61.3,61.0,29.83,NE,44,1.0,-999.0,100,-99.99,,,0.00,weatherlink.com 1.10,2013-09-21 15:03:00,
2013-09-21 11:18:00,61.5,62.0,29.83,NE,41,3.0,-999.0,100,-99.99,,,0.00,weatherlink.com 1.10,2013-09-21 15:18:00,
2013-09-21 11:33:00,61.5,62.0,29.83,NNW,334,1.0,-999.0,100,-99.99,,,0.00,weatherlink.com 1.10,2013-09-21 15:33:00,
2013-09-21 11:48:00,61.5,62.0,29.82,North,5,1.0,-999.0,100,-99.99,,,0.00,weatherlink.com 1.10,2013-09-21 15:48:00,
2013-09-21 12:03:00,61.5,62.0,29.81,WNW,296,2.0,-999.0,100,-99.99,,,0.00,weatherlink.com 1.10,2013-09-21 16:03:00,
2013-09-21 12:18:00,61.5,62.0,29.81,North,11,0.0,-999.0,100,-99.99,,,0.00,weatherlink.com 1.10,2013-09-21 16:18:00,
2013-09-21 12:33:00,61.5,62.0,29.80,NE,42,2.0,-999.0,100,-99.99,,,0.00,weatherlink.com 1.10,2013-09-21 16:33:00,
2013-09-21 12:48:00,61.5,62.0,29.80,North,9,0.0,-999.0,100,-99.99,,,0.00,weatherlink.com 1.10,2013-09-21 16:48:00,
2013-09-21 13:03:00,61.5,62.0,29.79,NE,47,0.0,-999.0,100,-99.99,,,0.00,weatherlink.com 1.10,2013-09-21 17:03:00,
2013-09-21 13:18:00,61.5,62.0,29.77,NE,47,3.0,-999.0,100,-99.99,,,0.00,weatherlink.com 1.10,2013-09-21 17:18:00,
2013-09-21 13:33:00,61.5,62.0,29.77,North,355,0.0,-999.0,100,-99.99,,,0.00,weatherlink.com 1.10,2013-09-21 17:33:00,
2013-09-21 13:48:00,61.5,62.0,29.77,SE,126,8.0,-999.0,100,-99.99,,,0.00,weatherlink.com 1.10,2013-09-21 17:48:00,
2013-09-21 14:03:00,61.3,61.0,29.76,North,350,0.0,-999.0,100,-99.99,,,0.00,weatherlink.com 1.10,2013-09-21 18:03:00,
2013-09-21 14:18:00,61.3,61.0,29.76,North,9,0.0,-999.0,100,-99.99,,,0.00,weatherlink.com 1.10,2013-09-21 18:18:00,
2013-09-21 14:33:00,61.3,61.0,29.76,NW,321,3.0,-999.0,100,-99.99,,,0.00,weatherlink.com 1.10,2013-09-21 18:33:00,
2013-09-21 14:48:00,61.2,61.0,29.75,NNW,327,0.0,-999.0,100,-99.99,,,0.00,weatherlink.com 1.10,2013-09-21 18:48:00,
2013-09-21 15:03:00,61.3,61.0,29.74,SSE,159,1.0,-999.0,100,-99.99,,,0.00,weatherlink.com 1.10,2013-09-21 19:03:00,
2013-09-21 15:18:00,61.5,62.0,29.73,North,355,0.0,-999.0,100,-99.99,,,0.00,weatherlink.com 1.10,2013-09-21 19:18:00,
2013-09-21 15:33:00,61.5,62.0,29.73,South,179,0.0,-999.0,100,-99.99,,,0.00,weatherlink.com 1.10,2013-09-21 19:33:00,
2013-09-21 15:48:00,61.3,61.0,29.76,NW,306,1.0,-999.0,100,-99.99,,,0.00,weatherlink.com 1.10,2013-09-21 19:48:00,
2013-09-21 16:03:00,59.9,60.0,29.77,WNW,302,6.0,-999.0,100,-99.99,,,0.00,weatherlink.com 1.10,2013-09-21 20:03:00,
2013-09-21 16:18:00,58.7,59.0,29.77,WNW,300,6.0,-999.0,100,-99.99,,,0.00,weatherlink.com 1.10,2013-09-21 20:18:00,
2013-09-21 16:33:00,58.4,58.0,29.77,West,269,9.0,-999.0,100,-99.99,,,0.00,weatherlink.com 1.10,2013-09-21 20:33:00,
2013-09-21 16:48:00,58.1,58.0,29.76,NW,315,4.0,-999.0,100,-99.99,,,0.00,weatherlink.com 1.10,2013-09-21 20:48:00,
2013-09-21 17:03:00,57.8,58.0,29.77,WNW,282,6.0,-999.0,100,-99.99,,,0.00,weatherlink.com 1.10,2013-09-21 21:03:00,
2013-09-21 17:18:00,57.2,57.0,29.76,WNW,302,9.0,-999.0,100,-99.99,,,0.00,weatherlink.com 1.10,2013-09-21 21:18:00,
2013-09-21 17:33:00,57.2,57.0,29.77,NW,304,2.0,-999.0,100,-99.99,,,0.00,weatherlink.com 1.10,2013-09-21 21:33:00,
2013-09-21 17:48:00,57.3,57.0,29.77,NNW,327,0.0,-999.0,100,-99.99,,,0.00,weatherlink.com 1.10,2013-09-21 21:48:00,
2013-09-21 18:03:00,57.3,57.0,29.77,NW,309,3.0,-999.0,100,-99.99,,,0.00,weatherlink.com 1.10,2013-09-21 22:03:00,
2013-09-21 18:18:00,57.6,58.0,29.77,NW,311,1.0,-999.0,100,-99.99,,,0.00,weatherlink.com 1.10,2013-09-21 22:18:00,
2013-09-21 18:33:00,57.6,58.0,29.78,WNW,298,3.0,-999.0,100,-99.99,,,0.00,weatherlink.com 1.10,2013-09-21 22:33:00,
2013-09-21 18:48:00,57.2,57.0,29.78,WNW,301,4.0,-999.0,100,-99.99,,,0.00,weatherlink.com 1.10,2013-09-21 22:48:00,
2013-09-21 19:04:00,56.9,57.0,29.77,WNW,303,5.0,-999.0,100,-99.99,,,0.00,weatherlink.com 1.10,2013-09-21 23:04:00,
2013-09-21 19:19:00,56.3,56.0,29.78,NW,305,4.0,-999.0,100,-99.99,,,0.00,weatherlink.com 1.10,2013-09-21 23:19:00,
2013-09-21 19:34:00,56.2,56.0,29.79,NW,325,3.0,-999.0,100,-99.99,,,0.00,weatherlink.com 1.10,2013-09-21 23:34:00,
2013-09-21 19:49:00,55.7,56.0,29.79,NW,305,3.0,-999.0,100,-99.99,,,0.00,weatherlink.com 1.10,2013-09-21 23:49:00,
2013-09-21 20:04:00,55.6,56.0,29.80,NW,308,5.0,-999.0,100,-99.99,,,0.00,weatherlink.com 1.10,2013-09-22 00:04:00,
2013-09-21 20:19:00,55.4,55.0,29.80,NW,315,3.0,-999.0,100,-99.99,,,0.00,weatherlink.com 1.10,2013-09-22 00:19:00,
2013-09-21 20:34:00,55.4,55.0,29.80,WNW,283,3.0,-999.0,100,-99.99,,,0.00,weatherlink.com 1.10,2013-09-22 00:34:00,
2013-09-21 20:49:00,55.3,55.0,29.81,WNW,295,3.0,-999.0,100,-99.99,,,0.00,weatherlink.com 1.10,2013-09-22 00:49:00,
2013-09-21 21:04:00,55.0,55.0,29.81,NW,311,4.0,-999.0,100,-99.99,,,0.00,weatherlink.com 1.10,2013-09-22 01:04:00,
2013-09-21 21:19:00,54.8,55.0,29.81,NW,311,4.0,-999.0,100,-99.99,,,0.00,weatherlink.com 1.10,2013-09-22 01:19:00,
2013-09-21 21:34:00,54.8,55.0,29.81,NW,321,4.0,-999.0,100,-99.99,,,0.00,weatherlink.com 1.10,2013-09-22 01:34:00,
2013-09-21 21:49:00,54.7,55.0,29.80,NW,308,6.0,-999.0,100,-99.99,,,0.00,weatherlink.com 1.10,2013-09-22 01:49:00,
2013-09-21 22:04:00,54.5,55.0,29.80,NW,318,7.0,-999.0,100,-99.99,,,0.00,weatherlink.com 1.10,2013-09-22 02:04:00,
2013-09-21 22:19:00,54.4,54.0,29.81,NW,314,2.0,-999.0,100,-99.99,,,0.00,weatherlink.com 1.10,2013-09-22 02:19:00,
2013-09-21 22:34:00,54.2,54.0,29.81,NW,311,2.0,-999.0,100,-99.99,,,0.00,weatherlink.com 1.10,2013-09-22 02:34:00,
2013-09-21 22:49:00,54.1,54.0,29.81,WNW,291,5.0,-999.0,100,-99.99,,,0.00,weatherlink.com 1.10,2013-09-22 02:49:00,
2013-09-21 23:04:00,54.1,54.0,29.81,NW,319,6.0,-999.0,100,-99.99,,,0.00,weatherlink.com 1.10,2013-09-22 03:04:00,
2013-09-21 23:19:00,53.8,54.0,29.81,NW,309,4.0,-999.0,100,-99.99,,,0.00,weatherlink.com 1.10,2013-09-22 03:19:00,
2013-09-21 23:34:00,53.6,54.0,29.80,NW,309,4.0,-999.0,100,-99.99,,,0.00,weatherlink.com 1.10,2013-09-22 03:34:00,
2013-09-21 23:49:00,53.3,53.0,29.80,NW,304,2.0,-999.0,100,-99.99,,,0.00,weatherlink.com 1.10,2013-09-22 03:49:00,